"Pseudo-MPEC" for C0GNC25

Created 2023 Mar 19 5:22:03 UT using Find_Orb

Click here for an explanation of pseudo-MPECs

 
 Astrometry: 
     C0GNC25* C2023 03 13Z/\Astrometry$?oi^c;P;N%flA'=.eL)XO%;DR$ZW%yLYC0C^:8V00
     C0GNC25  C2023 03 132t$$;_u#Ja\+fTredacted;0-%kd*DjcgT`Kox^iV^;8;?:yh0S=V00
     C0GNC25  C2023 03 13%x[cBK0g5O?srclickvj07(KWvN3OpCO#;TUPqRx\?hereQe^%]4V00
     C0GNC25  C2023 03 13omQr7'JVqG,N:*m26I0R+O)pg.-WT\.Lsi'wFxxR;Fd.XWhRq6f_V00
     C0GNC25 mC2023 03 14Ds;V'w-J.4GTfE`m:,W?2YadOY;ryhgUodM#4[75i$4OKO6\+/neV00
     C0GNC25 mC2023 03 14p3n)g0!fxhuH,IKt^/N@x#k'mforN2vws/FwVX=.mV-['Txk(ri`V00
     C0GNC25 mC2023 03 14pSF(0BZ]R9)6qFxL9/Y/D:dB+FoN,3x`Y'JU;-auFjerk=D^LWHKV00
     C0GNC25 mC2023 03 18q2mWX+eO*%be)Z6%/6Jt.o7,Sc!i[g6lFSwe\[DE'=Z=viSF=o/HV00
     C0GNC25 mC2023 03 18IMf$p!l`mlmD1P/OZ6l;SB^`CV8eYalEfbFXm$p75=DOxZum3=+MV00
     C0GNC25 mC2023 03 18`a^yL=:Z8]/-FQ-u\p/1cvNHJ50bh\%(explanationUuc57!LFrV00
     C0GNC25 mC2023 03 18Yl#@dSVZbgw_Fc+VKsl*!G%7@=8Q.;qMnN-1;+pW+3a^5ShkUGclV00
     C0GNC25 KC2023 03 19.12079102 26 12.394+35 47 29.22   ~3J3b 21.29GVNEOCPI52
     C0GNC25 KC2023 03 19.12701502 26 13.225+35 47 44.20   ~3J3b 21.72GVNEOCPI52
     C0GNC25 KC2023 03 19.13782202 26 14.622+35 48 08.82   ~3J3b 21.15GVNEOCPI52

Station data:
(I52) Steward Observatory, Mt. Lemmon Station  (N32.442544 W110.788920)
   US/Arizona.  Observers T. A. Pruyne, B. M. Africano, E. J. Christensen, G.
   A. Farneth, D. C. Fuls, A. R. Gibbs, A. D. Grauer, H. Gröller, J. A.
   Johnson, R. A. Kowalski, S. M. Larson, G. J. Leonard, D. Rankin, R. L.
   Seaman, F. C. Shelly, K. W. Wierzchoś. 1.0-m reflector + CCD.
(V00) Kitt Peak-Bok  (N31.963125 W111.600190)  US/Arizona.  Observers T. A.
   Pruyne, B. M. Africano, E. J. Christensen, G. A. Farneth, D. C. Fuls, A.
   R. Gibbs, A. D. Grauer, H. Gröller, J. A. Johnson, R. A. Kowalski, S. M.
   Larson, G. J. Leonard, D. Rankin, R. L. Seaman, F. C. Shelly, K. W.
   Wierzchoś. 2.25-m reflector + CCD.

Orbital elements:  C0GNC25
   Perihelion 2023 Jun 2.26885 +/- 0.0464 TT =  6:27:09 (JD 2460097.76885)
Epoch 2023 Mar 19.0 TT = JDT 2460022.5   Earth MOID: 0.2057   Ve: 0.0514
M 201.67121069 +/- 0.17             Me: 0.0519                   AutoNEOCP
n   2.10351000 +/- 0.00232          Peri.  205.87040 +/- 0.037
a   0.60326249 +/- 0.000444         Node    95.97360 +/- 0.034
e   0.3407330 +/- 0.00136           Incl.   35.56582 +/- 0.14
P   0.47/171.14d           H 19.93  G  0.15   U  8.7
q 0.39771099 +/- 0.0011    Q 0.80881399 +/- 0.000332      (J2000 ecliptic)
From 14 observations 2023 Mar. 13-19; mean residual 0".20
Residuals in arcseconds: 
230313 V00  .17-  .09-    230314 V00  .05-  .04-    230318 V00  .27+  .16+    
230313 V00  .06-  .03+    230314 V00  .02+  .33-    230319 I52  .27-  .33-    
230313 V00  .00   .31+    230318 V00  .38-  .06-    230319 I52  .14+  .27+    
230313 V00  .06+  .08-    230318 V00  .04+  .16-    230319 I52  .25+  .07-    
230314 V00  .29+  .13+    230318 V00  .15-  .27+    

Ephemerides (geocentric):
Date (UTC) HH   RA             Dec           delta  r     elong  mag " sig PA
---- --------  ------------   ------------  ------ ------ -----  --- --------
2023 03 19 05  02 26 24.455   +35 50 57.46  .82137 .80031  51.2 21.7 .147 121
2023 03 19 06  02 26 29.843   +35 52 34.84  .82142 .80024  51.2 21.7 .159 120
2023 03 19 07  02 26 35.228   +35 54 12.15  .82147 .80017  51.2 21.7 .172 120
2023 03 19 08  02 26 40.610   +35 55 49.37  .82153 .80010  51.2 21.7 .186 119
2023 03 19 09  02 26 45.988   +35 57 26.50  .82158 .80003  51.2 21.7 .199 119
2023 03 19 10  02 26 51.364   +35 59 03.55  .82163 .79997  51.2 21.7 .213 118
2023 03 19 11  02 26 56.736   +36 00 40.52  .82169 .79990  51.1 21.7 .227 118
2023 03 19 12  02 27 02.106   +36 02 17.41  .82174 .79983  51.1 21.7 .241 118
2023 03 19 13  02 27 07.472   +36 03 54.21  .82179 .79976  51.1 21.7 .255 117
2023 03 19 14  02 27 12.835   +36 05 30.92  .82184 .79969  51.1 21.7 .269 117
2023 03 19 15  02 27 18.195   +36 07 07.56  .82189 .79962  51.1 21.7 .284 117
2023 03 19 16  02 27 23.552   +36 08 44.10  .82195 .79955  51.1 21.7 .298 117
2023 03 19 17  02 27 28.905   +36 10 20.57  .82200 .79948  51.1 21.7 .313 116
2023 03 19 18  02 27 34.256   +36 11 56.95  .82205 .79941  51.1 21.7 .328 116
2023 03 19 19  02 27 39.603   +36 13 33.25  .82210 .79933  51.1 21.7 .344 116
2023 03 19 20  02 27 44.948   +36 15 09.46  .82215 .79926  51.1 21.7 .359 116
2023 03 19 21  02 27 50.289   +36 16 45.60  .82220 .79919  51.1 21.7 .375 116
2023 03 19 22  02 27 55.627   +36 18 21.64  .82225 .79912  51.1 21.7 .391 115
2023 03 19 23  02 28 00.962   +36 19 57.61  .82230 .79905  51.1 21.7 .407 115
2023 03 20 00  02 28 06.293   +36 21 33.49  .82235 .79898  51.1 21.7 .423 115
2023 03 20 01  02 28 11.622   +36 23 09.29  .82240 .79890  51.1 21.7 .439 115
2023 03 20 02  02 28 16.947   +36 24 45.00  .82245 .79883  51.0 21.7 .456 115
2023 03 20 03  02 28 22.269   +36 26 20.63  .82250 .79876  51.0 21.7 .473 114
2023 03 20 04  02 28 27.588   +36 27 56.18  .82254 .79868  51.0 21.7 .490 114
2023 03 20 05  02 28 32.904   +36 29 31.64  .82259 .79861  51.0 21.7 .507 114
2023 03 20 06  02 28 38.217   +36 31 07.02  .82264 .79854  51.0 21.7 .525 114
2023 03 20 07  02 28 43.527   +36 32 42.32  .82269 .79846  51.0 21.7 .542 114
2023 03 20 08  02 28 48.833   +36 34 17.54  .82273 .79839  51.0 21.7 .560 114
2023 03 20 09  02 28 54.136   +36 35 52.67  .82278 .79831  51.0 21.7 .578 113
2023 03 20 10  02 28 59.437   +36 37 27.72  .82283 .79824  51.0 21.7 .596 113
2023 03 20 11  02 29 04.733   +36 39 02.68  .82287 .79816  51.0 21.7 .614 113
2023 03 20 12  02 29 10.027   +36 40 37.56  .82292 .79809  51.0 21.7 .633 113
2023 03 20 13  02 29 15.318   +36 42 12.36  .82297 .79801  51.0 21.7 .652 113
2023 03 20 14  02 29 20.605   +36 43 47.08  .82301 .79793  51.0 21.7 .671 113
2023 03 20 15  02 29 25.890   +36 45 21.72  .82306 .79786  51.0 21.7 .690 113
2023 03 20 16  02 29 31.171   +36 46 56.27  .82310 .79778  51.0 21.7 .709 112
2023 03 20 17  02 29 36.449   +36 48 30.73  .82315 .79770  50.9 21.7 .729 112
2023 03 20 18  02 29 41.723   +36 50 05.12  .82319 .79763  50.9 21.7 .748 112
2023 03 20 19  02 29 46.995   +36 51 39.42  .82324 .79755  50.9 21.7 .768 112
2023 03 20 20  02 29 52.263   +36 53 13.64  .82328 .79747  50.9 21.7 .788 112
2023 03 20 21  02 29 57.528   +36 54 47.78  .82332 .79739  50.9 21.7 .809 112
2023 03 20 22  02 30 02.790   +36 56 21.83  .82337 .79731  50.9 21.7 .829 112
2023 03 20 23  02 30 08.049   +36 57 55.81  .82341 .79724  50.9 21.7 .850 111
2023 03 21 00  02 30 13.305   +36 59 29.70  .82345 .79716  50.9 21.7 .871 111
2023 03 21 01  02 30 18.557   +37 01 03.50  .82350 .79708  50.9 21.7 .892 111
2023 03 21 02  02 30 23.806   +37 02 37.23  .82354 .79700  50.9 21.7 .913 111
2023 03 21 03  02 30 29.053   +37 04 10.87  .82358 .79692  50.9 21.7 .935 111
2023 03 21 04  02 30 34.295   +37 05 44.43  .82362 .79684  50.9 21.7 .956 111